Theta_e
319 315 312 307 296 292 288 291 292 292 294 298 297 296 297 297 298 293 309 321 324 328 333 341 347 348 348 348 348 347 348 347 345 345 344 344 342 340 339 340 340 342 343 342 339 337 336 336 336
312 313 308 300 292 285 286 292 293 294 295 296 296 296 298 298 302 306 310 321 326 329 333 336 344 346 347 348 349 348 347 346 346 344 342 341 341 339 336 336 336 337 339 337 334 332 330 329 329
311 309 304 295 288 285 288 292 292 294 294 294 298 300 299 298 302 306 313 321 325 327 330 333 343 346 346 347 346 346 346 344 342 340 339 337 336 335 333 332 334 335 333 330 328 326 324 324 324
307 303 298 293 289 293 292 294 292 293 297 295 297 294 298 301 304 306 312 321 322 323 327 335 342 344 342 343 343 342 341 339 337 335 337 336 334 331 328 327 329 328 327 325 323 322 321 321 321
302 297 290 287 288 291 293 294 294 294 293 293 296 295 295 298 302 307 315 320 320 319 322 329 339 342 341 340 340 340 339 337 336 334 334 332 329 326 325 324 324 323 323 322 321 321 321 320 318
297 295 289 285 287 292 294 294 294 293 293 292 295 294 296 298 302 305 315 315 317 317 319 324 332 336 336 338 338 338 338 336 335 333 331 327 325 324 322 322 322 321 321 320 320 318 318 317 316
296 293 288 286 288 291 294 293 292 292 293 295 296 295 296 297 301 307 310 311 313 315 317 319 324 328 332 335 336 337 336 334 332 329 326 324 322 322 320 320 320 320 320 319 317 315 315 315 313
297 294 287 287 287 290 293 292 293 294 295 294 297 294 295 298 302 306 308 309 309 311 313 314 317 319 320 323 329 331 331 330 328 326 324 323 321 321 320 321 320 319 319 316 314 312 312 311 310
296 289 285 288 288 291 293 292 294 294 295 294 297 296 295 297 302 303 302 303 305 308 310 310 312 313 314 314 318 324 326 325 324 322 319 312 304 306 306 312 318 317 316 313 311 309 307 306 306
295 287 288 291 290 292 293 293 297 296 293 292 295 296 296 297 300 302 301 304 303 305 307 308 308 309 309 312 311 311 313 312 309 307 305 300 299 300 304 310 316 314 313 310 308 306 302 296 290
294 291 292 294 295 295 294 292 294 292 293 294 295 297 295 295 297 301 302 304 307 308 307 307 306 306 306 307 306 305 304 303 302 301 298 296 296 299 298 297 295 294 297 293 293 290 289 289 289
293 296 295 296 296 295 294 294 292 294 300 297 298 297 295 295 295 298 300 302 303 303 306 305 304 304 303 303 305 303 302 299 298 297 295 293 293 293 293 290 289 288 288 287 288 288 288 288 289
293 295 297 297 297 297 296 296 294 294 299 297 296 296 295 295 295 297 299 300 300 301 303 303 304 304 303 301 301 300 300 299 297 295 294 293 293 291 290 288 287 286 287 287 286 287 287 287 287
293 294 295 295 296 296 295 297 293 297 296 297 295 295 294 294 296 295 294 296 295 299 302 303 302 304 302 301 300 301 299 296 295 293 294 292 292 289 289 288 287 286 286 286 286 286 285 286 286
293 292 291 292 293 293 294 292 290 299 294 295 295 294 295 294 294 296 299 298 298 297 298 300 302 303 301 301 299 299 298 295 294 293 292 291 291 289 288 287 286 285 285 286 285 285 285 284 285
287 288 285 289 291 291 293 286 296 294 291 294 294 294 294 295 295 297 298 298 298 298 295 297 301 301 300 300 297 298 296 295 294 292 292 292 290 289 287 287 286 285 285 285 284 284 283 283 283
283 282 283 287 292 291 290 287 293 293 292 293 294 294 296 298 297 295 297 298 298 298 297 295 297 299 299 299 296 295 294 294 294 291 291 291 290 289 288 287 285 285 284 284 284 283 282 282 282
282 280 283 283 288 288 287 288 292 295 291 294 296 297 297 297 299 302 297 296 297 297 298 296 295 297 297 297 294 291 290 292 291 291 291 290 290 288 287 286 285 284 283 283 283 282 282 282 281
284 283 282 286 290 286 288 289 291 294 294 295 296 296 297 297 300 301 296 294 294 294 294 294 293 295 295 294 292 291 292 291 291 291 291 290 289 288 287 286 284 284 283 283 282 282 282 281 281
286 285 285 288 291 286 287 287 290 292 293 295 296 297 297 297 298 298 294 292 292 293 294 294 294 293 294 295 294 292 294 291 292 291 289 289 288 287 287 285 284 284 282 282 282 282 281 281 280
284 283 285 285 286 286 284 285 286 290 291 295 296 296 295 295 296 298 294 292 291 291 292 294 294 293 294 294 293 285 286 285 285 286 287 287 287 286 286 285 284 283 283 282 281 281 281 280 280
285 288 287 286 282 279 284 279 284 289 289 289 291 293 293 294 295 294 294 291 291 292 292 293 293 292 293 293 292 291 291 290 290 291 290 288 287 286 285 285 284 284 283 281 281 281 281 281 279
286 287 285 282 280 279 279 278 282 285 286 289 291 291 292 292 292 293 292 292 293 291 290 290 291 291 292 293 293 292 292 292 288 289 288 287 286 286 285 284 283 283 282 281 281 280 280 280 280
287 285 283 281 280 276 281 281 281 284 286 287 291 292 292 292 292 292 290 291 290 288 288 288 289 289 291 291 291 291 292 287 287 286 287 286 285 284 284 284 283 283 282 281 281 281 280 280 279
287 282 277 274 273 276 280 279 285 288 289 290 292 291 292 290 290 289 290 289 289 286 286 286 287 287 288 289 290 290 290 286 288 286 287 285 284 284 284 283 282 282 282 281 281 281 280 280 279
284 285 279 273 273 281 280 279 288 290 291 290 288 289 289 288 288 289 290 289 288 287 285 286 286 286 287 287 288 288 288 288 288 286 287 286 286 286 285 283 283 282 281 281 281 280 280 279 279
282 282 286 281 281 276 283 285 291 291 286 287 287 288 289 289 289 290 291 290 289 287 285 286 286 286 287 287 287 287 287 287 287 284 285 286 286 286 283 283 282 281 281 281 280 280 279 279 279
285 287 282 281 275 274 279 280 284 288 291 292 289 287 289 290 292 293 291 291 289 288 287 285 286 286 287 286 287 288 288 288 287 283 284 284 285 284 282 283 282 281 281 280 280 279 279 278 278
281 281 282 282 282 278 277 281 292 291 288 287 287 289 289 291 293 290 290 291 290 289 287 286 285 285 285 285 286 286 287 286 285 284 284 285 284 283 282 283 282 281 280 280 280 279 278 278 277
285 287 286 282 280 280 282 282 294 294 294 292 291 290 288 288 288 289 289 289 289 289 290 290 288 286 285 286 285 284 285 283 283 284 284 284 284 283 283 283 282 281 281 280 279 278 278 277 276
Wind_Speed
1 2 3 5 5 6 4 7 3 3 2 2 7 6 8 4 7 7 3 8 4 10 7 7 13 15 14 14 13 13 13 12 9 9 10 10 11 8 6 7 8 10 11 13 11 9 9 10 9
1 1 5 3 5 2 6 4 6 6 2 3 3 3 1 7 2 4 1 8 7 9 7 7 9 10 13 13 14 14 13 12 12 12 12 11 11 10 8 7 6 7 8 8 7 9 9 9 9
1 4 4 5 4 5 5 6 5 2 2 2 2 1 2 5 2 4 5 10 8 7 7 6 10 12 12 14 11 12 14 12 12 9 8 10 10 9 9 9 8 9 8 9 8 9 9 8 10
3 5 5 4 6 8 7 5 3 1 1 3 1 6 4 4 6 5 6 9 8 7 7 9 12 13 14 11 12 10 10 12 12 11 11 11 11 11 10 9 10 10 9 9 9 9 9 10 11
5 3 2 2 6 7 6 6 5 4 2 1 3 5 5 3 3 5 7 8 10 6 6 7 12 13 14 15 14 13 12 13 12 13 11 11 11 10 10 9 10 10 10 10 10 10 10 11 10
4 4 3 4 6 6 6 5 4 4 2 1 2 2 7 1 2 5 6 8 7 8 6 6 9 11 15 15 16 16 14 14 13 13 12 11 10 10 9 10 10 10 10 11 11 10 10 10 11
6 4 4 3 5 7 5 4 3 3 1 6 2 2 6 3 6 7 5 5 5 7 7 6 6 7 10 11 12 14 14 15 15 14 13 12 12 12 11 11 11 12 11 11 11 10 10 10 10
6 5 1 4 2 7 2 2 1 5 6 2 5 6 7 1 6 6 6 6 5 5 6 6 6 6 6 6 10 9 12 13 13 12 11 12 10 10 11 9 11 13 13 11 11 10 10 10 10
3 4 2 6 6 6 2 2 2 1 3 3 7 5 2 4 7 6 4 2 4 5 7 6 6 6 6 6 6 8 12 12 12 10 11 8 4 6 6 6 12 13 13 12 11 11 10 10 10
5 4 8 6 5 5 3 4 3 1 6 5 6 6 3 5 6 9 9 11 8 10 10 7 7 7 7 5 6 6 6 5 5 6 7 5 5 5 4 5 9 11 11 11 11 10 9 7 4
5 7 6 6 8 4 5 4 4 4 10 10 10 9 7 7 8 9 10 11 17 11 7 11 8 7 7 6 4 3 3 4 4 7 6 6 4 3 3 3 3 4 6 4 5 5 4 5 3
3 9 6 4 2 3 5 5 4 8 21 6 14 6 6 10 12 15 15 15 12 11 12 9 9 9 7 5 6 5 6 4 4 5 8 5 4 4 4 3 4 3 2 4 4 3 4 4 4
5 5 6 6 6 8 5 13 8 11 22 9 8 8 11 10 13 12 13 10 9 12 12 13 12 12 10 9 5 5 6 6 6 6 7 6 6 5 5 4 4 4 3 3 4 4 4 3 3
3 4 6 7 7 8 8 18 3 14 7 11 7 12 12 12 15 7 9 16 14 14 15 13 15 14 12 12 10 8 6 5 6 5 7 7 6 5 5 5 4 4 4 3 3 3 3 3 2
3 8 8 7 6 8 7 12 11 21 3 13 12 11 10 13 9 19 19 19 18 17 14 18 17 16 15 16 11 8 8 7 8 7 7 8 7 7 7 5 4 4 3 5 4 3 3 3 1
2 2 5 2 7 3 8 10 24 9 5 15 12 12 9 13 13 17 16 17 15 15 18 16 16 18 17 16 12 9 8 8 7 6 7 9 8 8 7 6 5 5 4 4 4 3 2 2 2
2 6 8 12 12 5 8 9 16 5 5 11 13 11 12 18 14 13 16 17 15 18 17 17 18 20 19 15 11 10 9 8 7 6 7 10 9 9 8 6 5 6 5 4 3 2 2 1 2
10 6 6 7 6 6 6 15 11 18 7 18 19 21 18 20 26 22 11 12 13 15 16 15 15 17 17 12 8 5 5 7 5 8 8 9 8 10 8 6 6 6 5 4 3 3 2 2 1
3 6 9 8 9 3 15 19 17 16 17 24 23 20 21 21 23 18 8 9 9 8 12 16 16 17 13 12 12 8 13 10 8 9 11 11 9 10 10 7 7 6 7 6 5 4 4 1 1
7 13 15 14 16 5 15 21 14 19 18 24 27 24 20 18 19 16 9 8 9 11 14 14 17 17 16 13 11 5 10 7 8 8 8 11 11 11 10 10 8 9 6 6 7 5 3 2 1
8 7 15 15 6 6 11 13 9 10 10 20 25 19 14 17 21 19 10 8 8 10 14 16 16 17 17 16 10 4 5 4 4 5 7 9 12 12 11 11 9 9 7 8 7 6 6 5 1
15 11 13 10 5 5 5 20 8 11 12 8 14 12 12 14 12 12 11 6 10 13 9 10 12 13 15 17 16 21 13 12 10 12 10 11 15 14 14 13 11 11 7 7 7 6 4 5 5
12 4 5 2 3 4 1 4 2 5 8 11 10 10 11 10 8 12 9 8 10 6 8 8 9 12 14 16 16 16 17 11 6 8 12 12 11 13 13 13 13 12 9 8 10 8 7 4 5
2 2 5 5 2 8 13 11 2 4 6 1 6 7 8 10 12 12 7 8 6 4 3 6 9 8 9 12 14 16 16 7 10 9 10 9 9 9 13 13 12 10 10 10 9 9 9 7 4
3 4 5 4 1 11 2 5 12 6 10 7 10 9 9 10 9 11 11 7 9 3 3 5 7 8 8 9 12 13 12 9 13 12 12 14 10 10 12 13 12 11 11 10 8 8 7 8 6
7 9 8 8 6 13 1 14 13 8 8 7 4 5 6 5 7 8 10 9 5 6 5 9 9 7 9 10 10 8 8 7 8 9 9 10 11 12 13 14 13 13 13 12 11 8 7 7 6
5 7 4 4 1 4 13 18 18 12 3 4 3 6 9 7 8 8 8 7 6 5 6 6 6 7 9 13 11 12 11 12 11 8 8 9 10 10 12 15 14 12 12 12 12 9 10 9 8
6 2 3 1 3 8 9 9 18 18 14 13 10 6 9 10 10 10 9 9 8 7 7 6 6 9 8 10 11 12 14 14 11 11 13 11 10 12 14 16 16 15 14 14 13 9 9 11 8
1 4 4 3 7 15 14 11 20 19 6 7 5 8 10 14 19 16 16 16 15 10 7 6 6 6 6 6 7 8 9 9 8 9 11 12 11 14 15 16 17 17 16 16 15 13 13 14 12
3 13 13 12 9 8 16 14 20 24 22 11 12 20 16 14 16 16 14 13 14 15 15 14 11 8 7 7 8 9 7 6 7 11 14 14 15 14 16 16 16 17 17 17 18 17 15 16 15
Wind_Direction
23 13 73 42 47 60 269 262 266 263 253 180 125 148 194 174 170 211 313 197 171 152 167 173 169 176 174 169 172 182 168 159 147 141 135 124 109 93 89 100 83 84 84 77 71 73 67 56 52
27 144 43 77 91 53 267 251 238 233 271 114 130 146 173 245 243 269 160 199 175 152 154 159 171 162 170 174 172 167 160 150 139 127 117 114 115 117 120 124 125 112 103 103 94 85 80 71 69
126 39 85 95 117 192 225 222 238 260 172 163 265 219 217 230 235 226 213 162 152 149 150 157 161 162 167 163 162 164 157 151 149 141 154 165 155 148 142 132 128 122 111 107 96 88 82 77 71
53 11 35 101 227 250 219 250 226 258 261 227 207 277 281 227 171 196 153 157 148 157 154 164 165 171 178 164 168 168 165 165 178 179 178 170 153 150 144 138 126 121 119 110 101 93 90 83 73
35 53 54 307 258 264 254 260 177 198 264 198 160 270 257 252 31 141 151 152 159 162 164 164 173 187 183 185 181 181 177 180 179 183 168 161 155 148 142 135 127 124 113 106 102 95 90 82 78
39 92 39 260 264 273 275 248 164 195 226 225 191 287 247 329 171 180 154 155 152 158 169 175 180 194 191 194 195 188 186 175 181 171 166 164 158 151 147 139 131 123 114 108 100 96 91 82 76
116 92 226 253 266 303 261 141 190 191 218 253 158 223 265 266 196 147 140 128 151 160 165 180 177 172 175 193 178 188 174 174 174 172 170 166 162 155 149 143 134 126 120 111 103 96 89 81 73
109 96 254 249 257 272 307 220 190 172 250 63 174 241 265 355 124 109 118 142 169 184 188 182 179 169 169 174 171 173 169 172 172 171 165 152 153 149 146 145 142 134 128 120 113 106 96 85 75
130 63 241 253 178 249 190 234 198 132 275 219 208 214 242 100 118 107 125 186 202 213 203 190 185 179 168 167 172 165 164 166 168 158 137 117 117 114 118 165 146 139 135 128 121 114 104 91 77
113 142 226 213 209 245 276 204 259 283 255 247 271 255 137 151 176 172 185 201 207 211 207 196 188 182 168 168 168 158 156 151 146 142 132 133 141 140 148 135 138 138 134 128 120 109 95 81 64
177 208 211 247 227 265 266 277 209 177 274 213 218 241 189 184 205 211 218 207 212 207 197 199 190 183 175 176 163 161 155 149 152 151 146 145 146 140 116 90 67 60 75 58 77 79 70 74 67
224 246 223 258 209 281 258 311 242 188 255 191 222 237 168 201 207 212 214 218 207 198 205 190 188 185 191 171 181 174 168 166 170 169 159 153 156 155 150 138 144 136 136 127 123 116 111 94 79
212 236 244 239 257 260 292 258 237 246 260 254 244 233 230 220 221 227 226 227 206 211 204 200 189 193 188 188 178 178 187 182 173 170 171 163 165 163 151 154 159 155 147 149 141 133 118 100 85
208 256 271 276 240 240 203 270 136 254 272 270 222 243 239 225 223 224 219 231 214 209 208 193 199 196 186 195 188 190 181 173 174 176 180 172 163 158 158 159 169 166 162 152 146 134 114 91 76
310 311 309 220 234 231 161 297 225 253 203 271 271 255 251 238 215 226 229 222 215 215 202 200 195 193 192 196 191 187 185 175 183 185 177 174 166 167 159 159 169 172 155 145 135 123 107 106 88
282 180 311 247 147 268 157 249 275 257 263 277 277 289 271 261 229 232 233 226 211 206 202 192 193 193 196 197 190 190 186 184 187 180 175 178 176 168 161 160 172 162 159 164 156 141 133 117 93
327 238 216 304 202 150 185 248 260 260 193 264 273 261 272 278 267 238 232 225 213 207 202 198 190 193 194 194 186 186 179 189 187 175 182 185 178 170 165 168 165 157 160 166 162 131 132 123 39
228 223 250 239 273 173 219 250 274 288 251 258 266 279 269 262 263 266 232 221 215 209 206 199 193 194 188 181 171 156 165 187 173 187 191 180 181 173 164 160 160 160 155 172 169 136 74 114 99
202 232 244 259 262 259 260 268 263 266 279 275 271 262 265 261 273 275 243 212 211 199 196 195 187 191 174 179 174 180 195 191 193 193 188 182 179 175 172 169 163 164 175 176 164 129 151 93 74
262 268 272 275 266 257 267 270 267 260 249 259 268 273 269 284 280 278 258 216 204 204 201 196 199 186 186 184 189 189 185 200 199 187 183 182 175 175 175 172 177 176 161 169 175 162 134 123 55
216 226 261 264 304 253 302 269 220 269 245 252 267 263 266 259 273 282 269 219 230 221 200 200 198 189 185 179 164 103 91 80 138 176 185 186 177 175 177 176 174 176 175 182 180 171 168 146 98
268 223 255 270 352 254 10 297 180 231 261 237 256 272 271 268 269 272 297 247 230 231 210 199 186 190 189 176 178 183 192 187 199 192 191 187 184 180 177 179 178 179 177 171 178 174 175 139 157
240 180 246 203 226 334 203 275 356 135 238 267 282 268 270 294 286 287 283 263 250 237 202 179 176 183 186 192 195 191 198 197 157 165 175 184 188 186 181 179 177 179 182 180 173 168 179 184 147
74 95 76 44 58 278 197 191 86 178 209 271 322 286 330 308 324 314 286 293 301 338 164 161 170 185 188 191 195 208 212 174 156 162 173 178 178 185 190 184 184 184 181 180 183 177 170 176 162
131 68 327 332 358 239 298 238 243 280 240 242 262 290 313 336 337 318 325 355 335 315 150 157 160 168 179 191 204 204 213 188 191 178 177 171 177 190 196 186 184 181 180 180 172 178 180 172 177
187 170 174 223 243 282 154 261 264 217 253 255 248 240 310 335 343 346 341 341 335 300 212 168 174 185 182 185 203 203 201 200 206 189 188 189 192 193 183 190 187 186 180 175 172 175 178 167 173
180 184 211 309 320 296 271 278 291 264 287 241 174 347 338 353 331 343 328 314 313 211 231 232 202 211 204 201 194 193 194 196 199 186 187 183 186 183 177 180 183 185 185 182 176 180 178 172 169
185 190 255 360 230 238 249 270 263 288 286 296 306 325 318 299 302 327 321 351 357 323 316 276 236 222 216 209 210 213 205 207 195 167 184 185 186 178 175 182 184 181 185 182 180 182 174 174 175
194 232 208 274 202 253 258 248 266 282 322 302 310 316 299 316 355 9 8 11 3 358 349 332 318 298 294 295 300 270 241 216 190 189 191 196 185 182 180 186 188 186 184 187 186 187 178 183 175
211 235 228 236 246 239 255 261 290 298 296 310 3 28 39 24 2 357 5 13 15 17 3 359 341 314 278 252 232 222 233 223 219 216 203 186 193 190 187 184 191 188 188 190 191 184 184 183 182